Station Historical Data
Daily Summary for July 22, 2017 Units:  Metric    English   Both
« Previous Day
Next Day »
Daily Weekly Monthly Yearly Custom
  High: Low: Average:
Temperature: 25.1 °C 19.8 °C 22.7 °C
Dew Point: 19.2 °C 16 °C 17.8 °C
Humidity: 88% 60% 75%
Wind Speed: 11.3km/h 0km/h 2.1km/h
Wind Gust: 19.3km/h - -
Wind- - ENE
Pressure: 1013.1 hPa 1007 hPa -
Precipitation: 0.51 mm    
Historical Graphs
 
 
Tabular Data for July 22, 2017
Time Temperature Dew Point Pressure Wind Wind Speed Wind Gust Humidity Rainfall Rate (Hourly)
00:00 21.6 °C 16.6 °C 1012.8 hPa Calm   4.8 km/h 73% 0 mm
00:05 21.8 °C 16.3 °C 1012.8 hPa Calm     71% 0 mm
00:10 21.8 °C 16.1 °C 1013.1 hPa Calm     70% 0 mm
00:15 21.9 °C 16.2 °C 1013.1 hPa Calm     70% 0 mm
00:20 21.9 °C 16.2 °C 1013.1 hPa Calm     70% 0 mm
00:25 21.9 °C 16.2 °C 1013.1 hPa Calm     70% 0 mm
00:30 21.9 °C 16.2 °C 1013.1 hPa Calm     70% 0 mm
00:35 21.8 °C 16.1 °C 1013.1 hPa Calm     70% 0 mm
00:40 21.8 °C 16.1 °C 1013.1 hPa Calm     70% 0 mm
00:45 21.8 °C 16.1 °C 1013.1 hPa Calm     70% 0 mm
00:50 21.7 °C 16 °C 1013.1 hPa Calm     70% 0 mm
00:55 21.7 °C 16.2 °C 1013.1 hPa Calm     71% 0 mm
01:00 21.8 °C 16.3 °C 1013.1 hPa Calm     71% 0 mm
01:05 21.7 °C 16.4 °C 1012.8 hPa Calm     72% 0 mm
01:10 21.7 °C 16.4 °C 1013.1 hPa Calm     72% 0 mm
01:15 21.6 °C 16.5 °C 1013.1 hPa Calm     73% 0 mm
01:20 21.4 °C 16.6 °C 1013.1 hPa Calm     74% 0 mm
01:25 21.3 °C 16.4 °C 1012.8 hPa Calm     74% 0 mm
01:30 21.3 °C 16.4 °C 1013.1 hPa Calm     74% 0 mm
01:35 21.2 °C 16.4 °C 1012.8 hPa Calm     74% 0 mm
01:40 21.2 °C 16.6 °C 1012.8 hPa Calm     75% 0 mm
01:45 21.1 °C 16.7 °C 1012.8 hPa Calm     76% 0 mm
01:50 21 °C 16.6 °C 1012.8 hPa Calm     76% 0 mm
01:55 20.9 °C 16.6 °C 1012.4 hPa Calm     76% 0 mm
02:00 20.9 °C 16.5 °C 1012.8 hPa Calm     76% 0 mm
02:05 20.9 °C 16.6 °C 1012.4 hPa Calm     76% 0 mm
02:10 20.9 °C 16.5 °C 1012.4 hPa Calm     76% 0 mm
02:15 20.9 °C 16.8 °C 1012.4 hPa Calm     77% 0 mm
02:20 20.8 °C 16.7 °C 1012.4 hPa Calm     77% 0 mm
02:25 20.8 °C 16.4 °C 1012.1 hPa Calm     76% 0 mm
02:30 20.9 °C 16.5 °C 1012.1 hPa Calm     76% 0 mm
02:35 20.9 °C 16.7 °C 1012.1 hPa Calm     77% 0 mm
02:40 20.7 °C 16.7 °C 1011.7 hPa Calm     78% 0 mm
02:45 20.6 °C 16.6 °C 1011.7 hPa Calm     78% 0 mm
02:50 20.4 °C 16.7 °C 1011.7 hPa Calm     79% 0 mm
02:55 20.3 °C 16.7 °C 1011.7 hPa Calm     80% 0 mm
03:00 20.2 °C 16.6 °C 1011.7 hPa Calm     80% 0 mm
03:05 20.2 °C 16.6 °C 1011.4 hPa Calm     80% 0 mm
03:10 20.2 °C 16.7 °C 1011.1 hPa Calm     80% 0 mm
03:15 20.2 °C 16.7 °C 1011.4 hPa Calm     80% 0 mm
03:20 20.2 °C 16.6 °C 1011.4 hPa Calm     80% 0 mm
03:25 20.1 °C 16.7 °C 1011.1 hPa Calm     81% 0 mm
03:30 20.1 °C 16.7 °C 1011.4 hPa Calm     81% 0 mm
03:35 20.1 °C 16.7 °C 1011.1 hPa Calm     81% 0 mm
03:40 20.1 °C 16.9 °C 1011.1 hPa Calm     82% 0 mm
03:45 20.1 °C 16.9 °C 1011.1 hPa Calm     82% 0 mm
03:50 20 °C 17 °C 1011.4 hPa Calm     83% 0 mm
03:55 19.8 °C 17.1 °C 1011.4 hPa Calm     84% 0 mm
04:00 19.8 °C 17.1 °C 1011.7 hPa Calm     84% 0 mm
04:05 19.8 °C 17.1 °C 1011.4 hPa Calm     84% 0 mm
04:10 19.8 °C 17 °C 1011.4 hPa Calm     84% 0 mm
04:15 19.9 °C 17.1 °C 1011.4 hPa Calm     84% 0 mm
04:20 19.9 °C 17.2 °C 1011.7 hPa Calm     84% 0 mm
04:25 19.9 °C 17.1 °C 1011.7 hPa Calm     84% 0 mm
04:30 19.9 °C 17.1 °C 1011.7 hPa Calm     84% 0 mm
04:35 19.9 °C 17.2 °C 1012.1 hPa Calm     84% 0 mm
04:40 19.9 °C 17.2 °C 1011.7 hPa Calm     84% 0 mm
04:45 19.9 °C 17.2 °C 1011.7 hPa Calm     84% 0 mm
04:50 20.1 °C 17.5 °C 1012.1 hPa Calm     85% 0 mm
04:55 20.2 °C 17.6 °C 1012.1 hPa Calm     85% 0 mm
05:00 20.3 °C 17.7 °C 1012.1 hPa Calm     85% 0 mm
05:05 20.3 °C 17.7 °C 1011.7 hPa Calm     85% 0 mm
05:10 20.3 °C 17.9 °C 1011.7 hPa Calm     86% 0 mm
05:15 20.3 °C 17.9 °C 1011.4 hPa Calm     86% 0 mm
05:20 20.4 °C 17.9 °C 1011.4 hPa Calm     86% 0 mm
05:25 20.3 °C 17.9 °C 1011.4 hPa Calm     86% 0 mm
05:30 20.4 °C 17.9 °C 1011.1 hPa Calm     86% 0 mm
05:35 20.3 °C 17.9 °C 1011.4 hPa Calm     86% 0 mm
05:40 20.4 °C 17.9 °C 1011.4 hPa Calm     86% 0 mm
05:45 20.4 °C 18 °C 1011.4 hPa Calm     86% 0 mm
05:50 20.4 °C 17.9 °C 1011.4 hPa Calm     86% 0 mm
05:55 20.4 °C 18 °C 1011.4 hPa Calm     86% 0 mm
06:00 20.4 °C 18 °C 1011.4 hPa Calm     86% 0 mm
06:05 20.4 °C 18 °C 1011.4 hPa Calm     86% 0 mm
06:10 20.4 °C 18 °C 1011.4 hPa Calm     86% 0 mm
06:15 20.4 °C 18 °C 1011.4 hPa Calm     86% 0 mm
06:20 20.4 °C 18 °C 1011.4 hPa Calm     86% 0 mm
06:25 20.4 °C 18.2 °C 1011.4 hPa Calm     87% 0 mm
06:30 20.3 °C 18.1 °C 1011.4 hPa Calm     87% 0 mm
06:35 20.4 °C 18.2 °C 1011.4 hPa Calm     87% 0 mm
06:40 20.5 °C 18.1 °C 1011.7 hPa Calm     86% 0 mm
06:45 20.6 °C 18.1 °C 1011.7 hPa Calm     86% 0 mm
06:50 20.6 °C 18.1 °C 1011.4 hPa Calm   4.8 km/h 86% 0 mm
06:55 20.6 °C 18.2 °C 1011.7 hPa Calm   4.8 km/h 86% 0 mm
07:00 20.7 °C 18.3 °C 1011.4 hPa Calm     86% 0 mm
07:05 20.8 °C 18.2 °C 1011.7 hPa Calm     85% 0 mm
07:10 20.9 °C 18.3 °C 1011.4 hPa Calm     85% 0 mm
07:15 21 °C 18.2 °C 1011.4 hPa Calm     84% 0 mm
07:20 21.1 °C 18.3 °C 1011.7 hPa Calm     84% 0 mm
07:25 21.2 °C 18.4 °C 1011.4 hPa Calm     84% 0 mm
07:30 21.2 °C 18.2 °C 1011.4 hPa Calm     83% 0 mm
07:35 21.3 °C 18.3 °C 1011.4 hPa Calm     83% 0 mm
07:40 21.3 °C 18.1 °C 1011.4 hPa Calm     82% 0 mm
07:45 21.3 °C 18.1 °C 1011.4 hPa Calm     82% 0 mm
07:50 21.5 °C 18.3 °C 1011.4 hPa Calm     82% 0 mm
07:55 21.6 °C 18.2 °C 1011.4 hPa Calm     81% 0 mm
08:00 21.7 °C 18.3 °C 1011.4 hPa Calm     81% 0 mm
08:05 21.8 °C 18.2 °C 1011.4 hPa Calm     80% 0 mm
08:10 21.8 °C 18.2 °C 1011.4 hPa Calm     80% 0 mm
08:15 21.9 °C 18.3 °C 1011.4 hPa Calm     80% 0 mm
08:20 22.1 °C 18.4 °C 1011.4 hPa Calm     80% 0 mm
08:25 22.1 °C 18.3 °C 1011.4 hPa Calm   3.2 km/h 79% 0 mm
08:30 22.3 °C 18.4 °C 1011.4 hPa Calm   3.2 km/h 79% 0 mm
08:35 22.4 °C 18.6 °C 1011.4 hPa Calm   3.2 km/h 79% 0 mm
08:40 22.6 °C 18.5 °C 1011.4 hPa Calm   4.8 km/h 78% 0 mm
08:45 22.6 °C 18.3 °C 1011.4 hPa SW 3.2 km/h 6.4 km/h 77% 0 mm
08:50 22.7 °C 18.2 °C 1011.7 hPa SW 1.6 km/h 6.4 km/h 76% 0 mm
08:55 22.8 °C 18.3 °C 1011.7 hPa Calm   3.2 km/h 76% 0 mm
09:00 22.8 °C 18.2 °C 1011.7 hPa Calm     75% 0 mm
09:05 22.8 °C 18.4 °C 1011.7 hPa Calm     76% 0 mm
09:10 22.7 °C 17.8 °C 1011.7 hPa Calm     74% 0 mm
09:15 22.8 °C 17.9 °C 1011.7 hPa Calm     74% 0 mm
09:20 22.8 °C 18.1 °C 1011.7 hPa Calm     75% 0 mm
09:25 22.8 °C 18.1 °C 1011.7 hPa Calm     75% 0 mm
09:30 22.8 °C 17.9 °C 1011.7 hPa Calm     74% 0 mm
09:35 22.8 °C 18.2 °C 1011.7 hPa Calm     75% 0 mm
09:40 22.9 °C 18.1 °C 1011.7 hPa Calm     74% 0 mm
09:45 23 °C 18.3 °C 1011.7 hPa Calm     75% 0 mm
09:50 23.1 °C 18.4 °C 1011.4 hPa Calm     75% 0 mm
09:55 23.1 °C 18.4 °C 1011.7 hPa Calm     75% 0 mm
10:00 23.1 °C 18.4 °C 1011.4 hPa Calm     75% 0 mm
10:05 23 °C 18.3 °C 1011.4 hPa SSE 3.2 km/h 4.8 km/h 75% 0 mm
10:10 22.9 °C 18.3 °C 1011.1 hPa Calm   4.8 km/h 75% 0 mm
10:15 22.9 °C 18.3 °C 1011.1 hPa Calm     75% 0 mm
10:20 23 °C 18.1 °C 1011.4 hPa Calm   4.8 km/h 74% 0 mm
10:25 23.2 °C 18.1 °C 1011.4 hPa SW 3.2 km/h 8 km/h 73% 0 mm
10:30 23.3 °C 18.2 °C 1011.4 hPa Calm   4.8 km/h 73% 0 mm
10:35 23.3 °C 18.2 °C 1011.1 hPa Calm   4.8 km/h 73% 0 mm
10:40 23.5 °C 18.4 °C 1011.1 hPa SSW 1.6 km/h 6.4 km/h 73% 0 mm
10:45 23.7 °C 18.3 °C 1011.1 hPa Calm   4.8 km/h 72% 0 mm
10:50 23.7 °C 17.9 °C 1011.1 hPa SW 1.6 km/h 6.4 km/h 70% 0 mm
10:55 23.8 °C 18.5 °C 1011.1 hPa SW 1.6 km/h 6.4 km/h 72% 0 mm
11:00 23.7 °C 18.2 °C 1011.1 hPa SW 1.6 km/h 3.2 km/h 71% 0 mm
11:05 23.8 °C 18.3 °C 1011.1 hPa Calm   4.8 km/h 71% 0 mm
11:10 23.9 °C 18.1 °C 1010.7 hPa Calm   4.8 km/h 70% 0 mm
11:20 24.1 °C 18.2 °C 1010.7 hPa Calm   4.8 km/h 70% 0 mm
11:25 24.2 °C 18.3 °C 1010.4 hPa Calm     70% 0 mm
11:30 24.2 °C 18.6 °C 1010.7 hPa Calm     71% 0 mm
11:35 24.2 °C 18.4 °C 1010.4 hPa Calm     70% 0 mm
11:40 24.4 °C 17.9 °C 1010.7 hPa Calm     67% 0 mm
11:45 24.6 °C 18.5 °C 1010.7 hPa Calm     69% 0 mm
11:50 24.4 °C 17.9 °C 1010.7 hPa Calm     67% 0 mm
11:55 24.4 °C 18.1 °C 1010.7 hPa Calm     68% 0 mm
12:00 24.4 °C 18.1 °C 1010.4 hPa Calm     68% 0 mm
12:05 24.3 °C 17.6 °C 1010.7 hPa Calm     66% 0 mm
12:10 24.4 °C 17.9 °C 1010.7 hPa Calm     67% 0 mm
12:15 24.4 °C 17.9 °C 1010.4 hPa Calm     67% 0 mm
12:20 24.4 °C 17.9 °C 1010.7 hPa Calm     67% 0 mm
12:25 24.6 °C 18 °C 1010.7 hPa Calm     67% 0 mm
12:30 24.4 °C 17.9 °C 1010.7 hPa Calm     67% 0 mm
12:35 24.6 °C 17.8 °C 1010.4 hPa Calm     66% 0 mm
12:40 24.7 °C 18.1 °C 1010.4 hPa Calm   3.2 km/h 67% 0 mm
12:45 24.8 °C 18.2 °C 1010.4 hPa ENE 1.6 km/h 4.8 km/h 67% 0 mm
12:50 24.8 °C 17.8 °C 1010.4 hPa ENE 1.6 km/h 4.8 km/h 65% 0 mm
12:55 24.7 °C 17.9 °C 1010.7 hPa Calm   6.4 km/h 66% 0 mm
13:00 24.7 °C 18.4 °C 1010.7 hPa Calm     68% 0 mm
13:05 24.7 °C 18.4 °C 1010.7 hPa Calm     68% 0 mm
13:10 24.8 °C 18.2 °C 1010.4 hPa Calm   8 km/h 67% 0 mm
13:15 24.8 °C 17.8 °C 1010.4 hPa ENE 3.2 km/h 8 km/h 65% 0 mm
13:20 24.7 °C 17.9 °C 1010.4 hPa ENE 3.2 km/h 9.7 km/h 66% 0 mm
13:25 24.7 °C 18.4 °C 1010 hPa NE 1.6 km/h 6.4 km/h 68% 0 mm
13:30 24.7 °C 18.8 °C 1010 hPa ENE 6.4 km/h 8 km/h 70% 0 mm
13:35 24.7 °C 18.6 °C 1010 hPa NE 3.2 km/h 6.4 km/h 69% 0 mm
13:40 24.7 °C 18.7 °C 1010 hPa ENE 4.8 km/h 12.9 km/h 69% 0 mm
13:45 24.9 °C 19.1 °C 1010 hPa ENE 4.8 km/h 12.9 km/h 70% 0 mm
13:50 24.8 °C 18.5 °C 1010 hPa NE 3.2 km/h 11.3 km/h 68% 0 mm
13:55 24.7 °C 18.2 °C 1010 hPa ENE 4.8 km/h 11.3 km/h 67% 0 mm
14:00 24.7 °C 18.4 °C 1010 hPa ENE 4.8 km/h 11.3 km/h 68% 0 mm
14:05 24.5 °C 18.4 °C 1010 hPa NE 4.8 km/h 11.3 km/h 69% 0 mm
14:10 24.4 °C 18.3 °C 1010 hPa NE 4.8 km/h 12.9 km/h 69% 0 mm
14:15 24.2 °C 18.4 °C 1009.7 hPa NE 4.8 km/h 12.9 km/h 70% 0 mm
14:20 24.2 °C 18.4 °C 1009.7 hPa ENE 4.8 km/h 16.1 km/h 70% 0 mm
14:25 24.1 °C 18.2 °C 1009.7 hPa ENE 3.2 km/h 14.5 km/h 70% 0 mm
14:30 23.9 °C 18.4 °C 1009.7 hPa NE 6.4 km/h 14.5 km/h 71% 0 mm
14:35 24 °C 18.2 °C 1009.7 hPa NE 11.3 km/h 14.5 km/h 70% 0 mm
14:40 23.9 °C 17.9 °C 1009.7 hPa NE 6.4 km/h 14.5 km/h 69% 0 mm
14:45 24.1 °C 18.2 °C 1009.4 hPa ENE 4.8 km/h 16.1 km/h 70% 0 mm
14:50 24.1 °C 18 °C 1009.4 hPa ENE 11.3 km/h 17.7 km/h 69% 0 mm
14:55 24.2 °C 18.3 °C 1009.4 hPa East 8 km/h 17.7 km/h 70% 0 mm
15:00 24.2 °C 18.3 °C 1009.4 hPa ENE 9.7 km/h 17.7 km/h 70% 0 mm
15:05 24.3 °C 18.4 °C 1009 hPa ENE 8 km/h 19.3 km/h 70% 0 mm
15:10 24.3 °C 18 °C 1009 hPa ENE 8 km/h 19.3 km/h 68% 0 mm
15:15 24.4 °C 17.9 °C 1009 hPa ENE 8 km/h 16.1 km/h 67% 0 mm
15:20 24.6 °C 17.8 °C 1008.7 hPa NE 3.2 km/h 12.9 km/h 66% 0 mm
15:25 24.6 °C 18.1 °C 1008.7 hPa NE 3.2 km/h 16.1 km/h 67% 0 mm
15:30 24.8 °C 18.3 °C 1008.7 hPa ENE 4.8 km/h 16.1 km/h 67% 0 mm
15:35 24.8 °C 18.3 °C 1008.7 hPa ENE 4.8 km/h 16.1 km/h 67% 0 mm
15:40 24.8 °C 17.8 °C 1008.4 hPa ENE 6.4 km/h 12.9 km/h 65% 0 mm
15:45 24.7 °C 17.4 °C 1008 hPa ENE 4.8 km/h 12.9 km/h 64% 0 mm
15:50 24.8 °C 17.8 °C 1008 hPa South 4.8 km/h 11.3 km/h 65% 0 mm
15:55 24.9 °C 17.7 °C 1008 hPa ENE 4.8 km/h 12.9 km/h 64% 0 mm
16:00 24.9 °C 17.8 °C 1008 hPa East 4.8 km/h 12.9 km/h 65% 0 mm
16:05 24.9 °C 17.8 °C 1008.4 hPa ENE 3.2 km/h 9.7 km/h 65% 0 mm
16:10 24.9 °C 17.9 °C 1008.4 hPa ENE 4.8 km/h 9.7 km/h 65% 0 mm
16:15 24.9 °C 17.9 °C 1008.4 hPa NE 1.6 km/h 8 km/h 65% 0 mm
16:20 24.8 °C 17.6 °C 1008.4 hPa East 3.2 km/h 8 km/h 64% 0 mm
16:25 25 °C 17.7 °C 1008.4 hPa ENE 4.8 km/h 8 km/h 64% 0 mm
16:30 25.1 °C 17.8 °C 1008 hPa ENE 4.8 km/h 12.9 km/h 64% 0 mm
16:35 25.1 °C 17.8 °C 1008 hPa ENE 6.4 km/h 12.9 km/h 64% 0 mm
16:40 25.1 °C 17.8 °C 1008 hPa ENE 6.4 km/h 12.9 km/h 64% 0 mm
16:45 24.8 °C 17.6 °C 1008 hPa ENE 4.8 km/h 12.9 km/h 64% 0 mm
16:50 24.8 °C 17.8 °C 1007.7 hPa ENE 6.4 km/h 12.9 km/h 65% 0 mm
16:55 24.7 °C 17.7 °C 1007.7 hPa NE 6.4 km/h 16.1 km/h 65% 0 mm
17:00 24.6 °C 17.8 °C 1008 hPa ENE 6.4 km/h 16.1 km/h 66% 0 mm
17:05 24.5 °C 17.7 °C 1008 hPa NE 6.4 km/h 14.5 km/h 66% 0 mm
17:10 24.5 °C 17.5 °C 1007.7 hPa ENE 6.4 km/h 14.5 km/h 65% 0 mm
17:15 24.6 °C 17.6 °C 1007.7 hPa ENE 8 km/h 16.1 km/h 65% 0 mm
17:20 24.5 °C 17.7 °C 1007.7 hPa NE 3.2 km/h 11.3 km/h 66% 0 mm
17:25 24.4 °C 17.2 °C 1007.7 hPa ENE 6.4 km/h 16.1 km/h 64% 0 mm
17:30 24.4 °C 17.4 °C 1007.7 hPa ENE 8 km/h 16.1 km/h 65% 0 mm
17:35 24.4 °C 17.4 °C 1007.7 hPa NE 4.8 km/h 12.9 km/h 65% 0 mm
17:40 24.4 °C 17.2 °C 1007.3 hPa ENE 4.8 km/h 11.3 km/h 64% 0 mm
17:45 24.4 °C 17.2 °C 1007.3 hPa NE 8 km/h 8 km/h 64% 0 mm
17:50 24.4 °C 17.2 °C 1007.3 hPa NE 4.8 km/h 11.3 km/h 64% 0 mm
17:55 24.4 °C 17.2 °C 1007.3 hPa ENE 4.8 km/h 11.3 km/h 64% 0 mm
18:00 24.5 °C 17.2 °C 1007.3 hPa ENE 4.8 km/h 8 km/h 64% 0 mm
18:05 24.4 °C 17.1 °C 1007.3 hPa ENE 3.2 km/h 11.3 km/h 64% 0 mm
18:10 24.4 °C 17.1 °C 1007.3 hPa ENE 4.8 km/h 11.3 km/h 64% 0 mm
18:15 24.4 °C 17.4 °C 1007 hPa NE 4.8 km/h 8 km/h 65% 0 mm
18:20 24.4 °C 17.7 °C 1007 hPa ESE 1.6 km/h 8 km/h 66% 0 mm
18:25 24.4 °C 17.4 °C 1007 hPa ENE 3.2 km/h 12.9 km/h 65% 0 mm
18:30 24.3 °C 17.3 °C 1007 hPa ENE 3.2 km/h 8 km/h 65% 0 mm
18:35 24.3 °C 17.1 °C 1007 hPa ENE 4.8 km/h 12.9 km/h 64% 0 mm
18:40 24.3 °C 16.8 °C 1007 hPa NE 3.2 km/h 16.1 km/h 63% 0 mm
18:45 24.3 °C 16.8 °C 1007 hPa ENE 6.4 km/h 16.1 km/h 63% 0 mm
18:50 24.3 °C 16.3 °C 1007 hPa East 4.8 km/h 14.5 km/h 61% 0 mm
18:55 24.4 °C 16.1 °C 1007 hPa NE 3.2 km/h 14.5 km/h 60% 0 mm
19:00 24.4 °C 16.4 °C 1007.3 hPa ENE 6.4 km/h 14.5 km/h 61% 0 mm
19:05 24.3 °C 16.8 °C 1007 hPa NE 4.8 km/h 11.3 km/h 63% 0 mm
19:10 24.2 °C 16.9 °C 1007.3 hPa NE 3.2 km/h 11.3 km/h 64% 0 mm
19:15 24.2 °C 16.9 °C 1007.3 hPa Calm   8 km/h 64% 0 mm
19:20 24.2 °C 17.2 °C 1007.3 hPa ENE 1.6 km/h 8 km/h 65% 0 mm
19:25 24.2 °C 17.4 °C 1007.3 hPa NE 3.2 km/h 8 km/h 66% 0 mm
19:30 24.1 °C 17.6 °C 1007.3 hPa ENE 4.8 km/h 11.3 km/h 67% 0 mm
19:40 24 °C 17.9 °C 1007.3 hPa NE 4.8 km/h 12.9 km/h 69% 0 mm
19:50 23.9 °C 18.1 °C 1007.7 hPa ENE 6.4 km/h 12.9 km/h 70% 0 mm
19:55 23.9 °C 18.3 °C 1007.7 hPa NE 4.8 km/h 12.9 km/h 71% 0 mm
20:05 23.8 °C 18.4 °C 1008 hPa NE 3.2 km/h 8 km/h 72% 0 mm
20:10 23.7 °C 18.6 °C 1008 hPa NE 9.7 km/h 9.7 km/h 73% 0 mm
20:15 23.6 °C 18.7 °C 1008 hPa ENE 11.3 km/h 12.9 km/h 74% 0 mm
20:20 23.6 °C 18.9 °C 1008 hPa Calm   11.3 km/h 75% 0 mm
20:25 23.4 °C 18.8 °C 1008 hPa NE 3.2 km/h 6.4 km/h 75% 0 mm
20:30 23.3 °C 18.6 °C 1008 hPa NE 3.2 km/h 12.9 km/h 75% 0 mm
20:35 23.1 °C 18.7 °C 1008 hPa NE 4.8 km/h 16.1 km/h 76% 0 mm
20:40 23 °C 18.6 °C 1007.7 hPa NE 6.4 km/h 16.1 km/h 76% 0 mm
20:45 22.9 °C 18.5 °C 1008 hPa NE 6.4 km/h 14.5 km/h 76% 0 mm
20:50 22.9 °C 18.4 °C 1008 hPa NE 6.4 km/h 14.5 km/h 76% 0 mm
20:55 22.8 °C 18.6 °C 1007.7 hPa NE 4.8 km/h 8 km/h 77% 0 mm
21:00 22.8 °C 18.6 °C 1007.7 hPa ENE 1.6 km/h 9.7 km/h 77% 0 mm
21:05 22.8 °C 18.8 °C 1007.7 hPa ENE 6.4 km/h 11.3 km/h 78% 0 mm
21:10 22.8 °C 18.8 °C 1007.7 hPa ENE 1.6 km/h 8 km/h 78% 0 mm
21:15 22.8 °C 18.9 °C 1008 hPa NE 3.2 km/h 17.7 km/h 79% 0 mm
21:20 22.7 °C 18.9 °C 1008 hPa NE 8 km/h 12.9 km/h 79% 0 mm
21:25 22.7 °C 18.8 °C 1008 hPa ENE 6.4 km/h 14.5 km/h 79% 0 mm
21:30 22.6 °C 18.8 °C 1008 hPa ENE 8 km/h 14.5 km/h 79% 0 mm
21:35 22.6 °C 18.9 °C 1008 hPa ENE 8 km/h 16.1 km/h 80% 0 mm
21:40 22.5 °C 18.9 °C 1008 hPa ENE 8 km/h 16.1 km/h 80% 0 mm
21:45 22.4 °C 18.8 °C 1008 hPa ENE 6.4 km/h 14.5 km/h 80% 0 mm
21:50 22.4 °C 18.8 °C 1008 hPa ENE 3.2 km/h 12.9 km/h 80% 0 mm
21:55 22.4 °C 19 °C 1008 hPa ENE 3.2 km/h 8 km/h 81% 0 mm
22:00 22.4 °C 18.9 °C 1008 hPa ENE 4.8 km/h 9.7 km/h 81% 0 mm
22:05 22.4 °C 18.9 °C 1008 hPa NE 1.6 km/h 8 km/h 81% 0 mm
22:10 22.3 °C 18.9 °C 1008 hPa ENE 3.2 km/h 11.3 km/h 81% 0 mm
22:15 22.3 °C 18.9 °C 1008 hPa Calm   8 km/h 81% 0 mm
22:20 22.3 °C 19.1 °C 1008 hPa East 3.2 km/h 9.7 km/h 82% 0 mm
22:25 22.3 °C 19.1 °C 1008 hPa NE 4.8 km/h 12.9 km/h 82% 0 mm
22:30 22.2 °C 18.9 °C 1008 hPa ENE 6.4 km/h 12.9 km/h 82% 0 mm
22:35 22.2 °C 19 °C 1008 hPa ENE 4.8 km/h 11.3 km/h 82% 0 mm
22:40 22.2 °C 19 °C 1008 hPa ENE 3.2 km/h 9.7 km/h 82% 0 mm
22:45 22.2 °C 18.9 °C 1008 hPa ENE 1.6 km/h 6.4 km/h 82% 0 mm
22:50 22.1 °C 18.9 °C 1008.4 hPa Calm   3.2 km/h 82% 0 mm
22:55 22.1 °C 19.1 °C 1008.4 hPa Calm     83% 0 mm
23:00 22 °C 19 °C 1008 hPa Calm     83% 0 mm
23:05 21.9 °C 18.9 °C 1008 hPa Calm     83% 0 mm
23:10 21.9 °C 18.9 °C 1008 hPa Calm     83% 0 mm
23:15 21.9 °C 18.9 °C 1008.4 hPa Calm     83% 0 mm
23:20 21.9 °C 18.9 °C 1008.4 hPa ENE 1.6 km/h 4.8 km/h 83% 0 mm
23:25 21.9 °C 19.1 °C 1008.4 hPa ENE 1.6 km/h 3.2 km/h 84% 0 mm
23:30 21.8 °C 19 °C 1008.4 hPa Calm   3.2 km/h 84% 0 mm
23:35 21.6 °C 19 °C 1008.4 hPa ENE 1.6 km/h 3.2 km/h 85% 0 mm
23:40 21.5 °C 19.1 °C 1008.4 hPa Calm   3.2 km/h 86% 0.25 mm
23:45 21.4 °C 19 °C 1008.4 hPa Calm   1.6 km/h 86% 0.25 mm
23:50 21.3 °C 19 °C 1008 hPa Calm   3.2 km/h 87% 0.25 mm
23:55 21.3 °C 19.2 °C 1008 hPa Calm   3.2 km/h 88% 0.51 mm
Buffalo, New York, USA
Compliments of Weather Underground - 2.5 mb